Year,Month,Day,Hour,Minute,Value (Times are PST for temperature in C)
2018,01,18,00,00,9.90
2018,01,18,00,01,9.90
2018,01,18,00,02,9.80
2018,01,18,00,03,9.80
2018,01,18,00,04,9.70
2018,01,18,00,05,9.70
2018,01,18,00,06,9.70
2018,01,18,00,07,9.60
2018,01,18,00,08,9.60
2018,01,18,00,09,9.60
2018,01,18,00,10,9.60
2018,01,18,00,11,9.50
2018,01,18,00,12,9.50
2018,01,18,00,13,9.40
2018,01,18,00,14,9.40
2018,01,18,00,15,9.40
2018,01,18,00,16,9.30
2018,01,18,00,17,9.30
2018,01,18,00,18,9.30
2018,01,18,00,19,9.30
2018,01,18,00,20,9.30
2018,01,18,00,21,9.30
2018,01,18,00,22,9.30
2018,01,18,00,23,9.40
2018,01,18,00,24,9.50
2018,01,18,00,25,9.50
2018,01,18,00,26,9.50
2018,01,18,00,27,9.50
2018,01,18,00,28,9.50
2018,01,18,00,29,9.50
2018,01,18,00,30,9.50
2018,01,18,00,31,9.50
2018,01,18,00,32,9.60
2018,01,18,00,33,9.60
2018,01,18,00,34,9.60
2018,01,18,00,35,9.60
2018,01,18,00,36,9.60
2018,01,18,00,37,9.60
2018,01,18,00,38,9.60
2018,01,18,00,39,9.60
2018,01,18,00,40,9.60
2018,01,18,00,41,9.50
2018,01,18,00,42,9.50
2018,01,18,00,43,9.50
2018,01,18,00,44,9.40
2018,01,18,00,45,9.40
2018,01,18,00,46,9.40
2018,01,18,00,47,9.40
2018,01,18,00,48,9.40
2018,01,18,00,49,9.40
2018,01,18,00,50,9.40
2018,01,18,00,51,9.40
2018,01,18,00,52,9.40
2018,01,18,00,53,9.40
2018,01,18,00,54,9.40
2018,01,18,00,55,9.40
2018,01,18,00,56,9.40
2018,01,18,00,57,9.40
2018,01,18,00,58,9.40
2018,01,18,00,59,9.30
2018,01,18,01,00,9.30
2018,01,18,01,01,9.40
2018,01,18,01,02,9.40
2018,01,18,01,03,9.40
2018,01,18,01,04,9.30
2018,01,18,01,05,9.30
2018,01,18,01,06,9.30
2018,01,18,01,07,9.30
2018,01,18,01,08,9.30
2018,01,18,01,09,9.30
2018,01,18,01,10,9.30
2018,01,18,01,11,9.30
2018,01,18,01,12,9.30
2018,01,18,01,13,9.40
2018,01,18,01,14,9.40
2018,01,18,01,15,9.40
2018,01,18,01,16,9.40
2018,01,18,01,17,9.40
2018,01,18,01,18,9.40
2018,01,18,01,19,9.40
2018,01,18,01,20,9.40
2018,01,18,01,21,9.40
2018,01,18,01,22,9.40
2018,01,18,01,23,9.40
2018,01,18,01,24,9.40
2018,01,18,01,25,9.40
2018,01,18,01,26,9.40
2018,01,18,01,27,9.40
2018,01,18,01,28,9.40
2018,01,18,01,29,9.40
2018,01,18,01,30,9.40
2018,01,18,01,31,9.40
2018,01,18,01,32,9.40
2018,01,18,01,33,9.40
2018,01,18,01,34,9.40
2018,01,18,01,35,9.40
2018,01,18,01,36,9.40
2018,01,18,01,37,9.40
2018,01,18,01,38,9.40
2018,01,18,01,39,9.40
2018,01,18,01,40,9.40
2018,01,18,01,41,9.40
2018,01,18,01,42,9.40
2018,01,18,01,43,9.40
2018,01,18,01,44,9.40
2018,01,18,01,45,9.40
2018,01,18,01,46,9.30
2018,01,18,01,47,9.30
2018,01,18,01,48,9.30
2018,01,18,01,49,9.30
2018,01,18,01,50,9.30
2018,01,18,01,51,9.20
2018,01,18,01,52,9.20
2018,01,18,01,53,9.10
2018,01,18,01,54,9.10
2018,01,18,01,55,9.10
2018,01,18,01,56,9.00
2018,01,18,01,57,9.00
2018,01,18,01,58,9.00
2018,01,18,01,59,9.00
2018,01,18,02,00,8.90
2018,01,18,02,01,8.90
2018,01,18,02,02,8.90
2018,01,18,02,03,8.90
2018,01,18,02,04,8.90
2018,01,18,02,05,8.90
2018,01,18,02,06,8.90
2018,01,18,02,07,8.90
2018,01,18,02,08,8.90
2018,01,18,02,09,8.90
2018,01,18,02,10,8.90
2018,01,18,02,11,8.90
2018,01,18,02,12,8.90
2018,01,18,02,13,8.90
2018,01,18,02,14,8.90
2018,01,18,02,15,8.90
2018,01,18,02,16,9.00
2018,01,18,02,17,9.00
2018,01,18,02,18,9.00
2018,01,18,02,19,9.00
2018,01,18,02,20,9.00
2018,01,18,02,21,9.00
2018,01,18,02,22,9.00
2018,01,18,02,23,9.00
2018,01,18,02,24,9.00
2018,01,18,02,25,9.00
2018,01,18,02,26,9.00
2018,01,18,02,27,9.00
2018,01,18,02,28,9.00
2018,01,18,02,29,9.00
2018,01,18,02,30,8.90
2018,01,18,02,31,8.90
2018,01,18,02,32,8.90
2018,01,18,02,33,8.90
2018,01,18,02,34,8.90
2018,01,18,02,35,8.80
2018,01,18,02,36,8.80
2018,01,18,02,37,8.80
2018,01,18,02,38,8.80
2018,01,18,02,39,8.80
2018,01,18,02,40,8.70
2018,01,18,02,41,8.70
2018,01,18,02,42,8.70
2018,01,18,02,43,8.70
2018,01,18,02,44,8.80
2018,01,18,02,45,8.80
2018,01,18,02,46,8.80
2018,01,18,02,47,8.90
2018,01,18,02,48,8.90
2018,01,18,02,49,8.90
2018,01,18,02,50,8.90
2018,01,18,02,51,8.90
2018,01,18,02,52,8.90
2018,01,18,02,53,8.90
2018,01,18,02,54,8.90
2018,01,18,02,55,9.00
2018,01,18,02,56,9.00
2018,01,18,02,57,9.00
2018,01,18,02,58,9.00
2018,01,18,02,59,9.00
2018,01,18,03,00,9.00
2018,01,18,03,01,9.00
2018,01,18,03,02,9.00
2018,01,18,03,03,9.00
2018,01,18,03,04,9.00
2018,01,18,03,05,8.90
2018,01,18,03,06,8.90
2018,01,18,03,07,8.90
2018,01,18,03,08,8.90
2018,01,18,03,09,8.90
2018,01,18,03,10,8.90
2018,01,18,03,11,9.00
2018,01,18,03,12,9.00
2018,01,18,03,13,9.00
2018,01,18,03,14,9.00
2018,01,18,03,15,9.00
2018,01,18,03,16,9.00
2018,01,18,03,17,9.00
2018,01,18,03,18,9.00
2018,01,18,03,19,9.00
2018,01,18,03,20,9.00
2018,01,18,03,21,9.00
2018,01,18,03,22,9.00
2018,01,18,03,23,9.00
2018,01,18,03,24,9.00
2018,01,18,03,25,9.00
2018,01,18,03,26,8.90
2018,01,18,03,27,8.90
2018,01,18,03,28,8.90
2018,01,18,03,29,8.90
2018,01,18,03,30,8.80
2018,01,18,03,31,8.80
2018,01,18,03,32,8.80
2018,01,18,03,33,8.80
2018,01,18,03,34,8.80
2018,01,18,03,35,8.80
2018,01,18,03,36,8.80
2018,01,18,03,37,8.70
2018,01,18,03,38,8.70
2018,01,18,03,39,8.70
2018,01,18,03,40,8.70
2018,01,18,03,41,8.70
2018,01,18,03,42,8.70
2018,01,18,03,43,8.70
2018,01,18,03,44,8.70
2018,01,18,03,45,8.70
2018,01,18,03,46,8.70
2018,01,18,03,47,8.60
2018,01,18,03,48,8.60
2018,01,18,03,49,8.60
2018,01,18,03,50,8.60
2018,01,18,03,51,8.60
2018,01,18,03,52,8.50
2018,01,18,03,53,8.50
2018,01,18,03,54,8.50
2018,01,18,03,55,8.40
2018,01,18,03,56,8.40
2018,01,18,03,57,8.40
2018,01,18,03,58,8.40
2018,01,18,03,59,8.30
2018,01,18,04,00,8.30
2018,01,18,04,01,8.30
2018,01,18,04,02,8.30
2018,01,18,04,03,8.30
2018,01,18,04,04,8.20
2018,01,18,04,05,8.20
2018,01,18,04,06,8.20
2018,01,18,04,07,8.20
2018,01,18,04,08,8.20
2018,01,18,04,09,8.20
2018,01,18,04,10,8.20
2018,01,18,04,11,8.10
2018,01,18,04,12,8.10
2018,01,18,04,13,8.00
2018,01,18,04,14,8.00
2018,01,18,04,15,7.90
2018,01,18,04,16,7.90
2018,01,18,04,17,7.90
2018,01,18,04,18,7.90
2018,01,18,04,19,7.90
2018,01,18,04,20,7.90
2018,01,18,04,21,7.90
2018,01,18,04,22,7.90
2018,01,18,04,23,8.00
2018,01,18,04,24,8.00
2018,01,18,04,25,8.10
2018,01,18,04,26,8.10
2018,01,18,04,27,8.10
2018,01,18,04,28,8.10
2018,01,18,04,29,8.10
2018,01,18,04,30,8.10
2018,01,18,04,31,8.10
2018,01,18,04,32,8.10
2018,01,18,04,33,8.20
2018,01,18,04,34,8.20
2018,01,18,04,35,8.20
2018,01,18,04,36,8.20
2018,01,18,04,37,8.20
2018,01,18,04,38,8.20
2018,01,18,04,39,8.20
2018,01,18,04,40,8.10
2018,01,18,04,41,8.10
2018,01,18,04,42,8.10
2018,01,18,04,43,8.10
2018,01,18,04,44,8.10
2018,01,18,04,45,8.10
2018,01,18,04,46,8.10
2018,01,18,04,47,8.10
2018,01,18,04,48,8.00
2018,01,18,04,49,8.00
2018,01,18,04,50,8.00
2018,01,18,04,51,8.00
2018,01,18,04,52,7.90
2018,01,18,04,53,7.90
2018,01,18,04,54,7.90
2018,01,18,04,55,7.80
2018,01,18,04,56,7.80
2018,01,18,04,57,7.80
2018,01,18,04,58,7.80
2018,01,18,04,59,7.70
2018,01,18,05,00,7.70
2018,01,18,05,01,7.70
2018,01,18,05,02,7.70
2018,01,18,05,03,7.60
2018,01,18,05,04,7.60
2018,01,18,05,05,7.60
2018,01,18,05,06,7.60
2018,01,18,05,07,7.60
2018,01,18,05,08,7.60
2018,01,18,05,09,7.60
2018,01,18,05,10,7.60
2018,01,18,05,11,7.70
2018,01,18,05,12,7.70
2018,01,18,05,13,7.70
2018,01,18,05,14,7.70
2018,01,18,05,15,7.70
2018,01,18,05,16,7.70
2018,01,18,05,17,7.70
2018,01,18,05,18,7.70
2018,01,18,05,19,7.70
2018,01,18,05,20,7.70
2018,01,18,05,21,7.70
2018,01,18,05,22,7.60
2018,01,18,05,23,7.60
2018,01,18,05,24,7.60
2018,01,18,05,25,7.60
2018,01,18,05,26,7.70
2018,01,18,05,27,7.70
2018,01,18,05,28,7.70
2018,01,18,05,29,7.70
2018,01,18,05,30,7.70
2018,01,18,05,31,7.70
2018,01,18,05,32,7.70
2018,01,18,05,33,7.70
2018,01,18,05,34,7.70
2018,01,18,05,35,7.70
2018,01,18,05,36,7.70
2018,01,18,05,37,7.70
2018,01,18,05,38,7.70
2018,01,18,05,39,7.70
2018,01,18,05,40,7.70
2018,01,18,05,41,7.70
2018,01,18,05,42,7.70
2018,01,18,05,43,7.70
2018,01,18,05,44,7.70
2018,01,18,05,45,7.70
2018,01,18,05,46,7.80
2018,01,18,05,47,7.80
2018,01,18,05,48,7.80
2018,01,18,05,49,7.80
2018,01,18,05,50,7.80
2018,01,18,05,51,7.70
2018,01,18,05,52,7.70
2018,01,18,05,53,7.70
2018,01,18,05,54,7.70
2018,01,18,05,55,7.70
2018,01,18,05,56,7.70
2018,01,18,05,57,7.70
2018,01,18,05,58,7.70
2018,01,18,05,59,7.70
2018,01,18,06,00,7.70
2018,01,18,06,01,7.70
2018,01,18,08,50,6.50
2018,01,18,08,51,6.50
2018,01,18,08,52,6.40
2018,01,18,08,53,6.40
2018,01,18,08,54,6.40
2018,01,18,08,55,6.50
2018,01,18,08,56,6.50
2018,01,18,08,57,6.50
2018,01,18,08,58,6.50
2018,01,18,08,59,6.60
2018,01,18,09,00,6.60
2018,01,18,09,01,6.70
2018,01,18,09,02,6.70
2018,01,18,09,03,6.80
2018,01,18,09,04,6.80
2018,01,18,09,05,6.80
2018,01,18,09,06,6.80
2018,01,18,09,07,6.70
2018,01,18,09,08,6.70
2018,01,18,09,09,6.70
2018,01,18,09,10,6.70
2018,01,18,09,11,6.60
2018,01,18,09,12,6.60
2018,01,18,09,13,6.60
2018,01,18,09,14,6.60
2018,01,18,09,15,6.70
2018,01,18,09,16,6.70
2018,01,18,09,17,6.70
2018,01,18,09,18,6.80
2018,01,18,09,19,6.80
2018,01,18,09,20,6.90
2018,01,18,09,21,6.90
2018,01,18,09,22,6.90
2018,01,18,09,23,6.90
2018,01,18,09,24,7.00
2018,01,18,09,25,7.00
2018,01,18,09,26,7.00
2018,01,18,09,27,6.90
2018,01,18,09,28,6.90
2018,01,18,09,29,6.90
2018,01,18,09,30,6.90
2018,01,18,09,31,6.90
2018,01,18,09,32,6.90
2018,01,18,09,33,7.00
2018,01,18,09,34,7.00
2018,01,18,09,35,7.10
2018,01,18,09,36,7.10
2018,01,18,09,37,7.20
2018,01,18,09,38,7.20
2018,01,18,09,39,7.20
2018,01,18,09,40,7.20
2018,01,18,09,41,7.20
2018,01,18,09,42,7.30
2018,01,18,09,43,7.30
2018,01,18,09,44,7.30
2018,01,18,09,45,7.30
2018,01,18,09,46,7.30
2018,01,18,09,47,7.30
2018,01,18,09,48,7.40
2018,01,18,09,49,7.40
2018,01,18,09,50,7.40
2018,01,18,09,51,7.40
2018,01,18,09,52,7.40
2018,01,18,09,53,7.40
2018,01,18,09,54,7.40
2018,01,18,09,55,7.40
2018,01,18,09,56,7.40
2018,01,18,09,57,7.40
2018,01,18,09,58,7.40
2018,01,18,09,59,7.50
2018,01,18,10,00,7.60
2018,01,18,10,01,7.60
2018,01,18,10,02,7.60
2018,01,18,10,03,7.60
2018,01,18,10,04,7.70
2018,01,18,10,05,7.70
2018,01,18,10,06,7.70
2018,01,18,10,07,7.70
2018,01,18,10,08,7.70
2018,01,18,10,09,7.70
2018,01,18,10,10,7.70
2018,01,18,10,11,7.80
2018,01,18,10,12,7.80
2018,01,18,10,13,7.80
2018,01,18,10,14,7.90
2018,01,18,10,15,7.90
2018,01,18,10,16,7.90
2018,01,18,10,17,8.00
2018,01,18,10,18,8.00
2018,01,18,10,19,8.10
2018,01,18,10,20,8.10
2018,01,18,10,21,8.20
2018,01,18,10,22,8.30
2018,01,18,10,23,8.40
2018,01,18,10,24,8.50
2018,01,18,10,25,8.50
2018,01,18,10,26,8.60
2018,01,18,10,27,8.60
2018,01,18,10,28,8.70
2018,01,18,10,29,8.70
2018,01,18,10,30,8.80
2018,01,18,10,31,8.80
2018,01,18,10,32,8.70
2018,01,18,10,33,8.70
2018,01,18,10,34,8.70
2018,01,18,10,35,8.70
2018,01,18,10,36,8.70
2018,01,18,10,37,8.70
2018,01,18,10,38,8.60
2018,01,18,10,39,8.70
2018,01,18,10,40,8.70
2018,01,18,10,41,8.70
2018,01,18,10,42,8.80
2018,01,18,10,43,8.80
2018,01,18,10,44,8.80
2018,01,18,10,45,8.90
2018,01,18,10,46,9.00
2018,01,18,10,47,9.10
2018,01,18,10,48,9.10
2018,01,18,10,49,9.20
2018,01,18,10,50,9.20
2018,01,18,10,51,9.20
2018,01,18,10,52,9.20
2018,01,18,10,53,9.30
2018,01,18,10,54,9.20
2018,01,18,10,55,9.20
2018,01,18,10,56,9.20
2018,01,18,10,57,9.20
2018,01,18,10,58,9.20
2018,01,18,10,59,9.20
2018,01,18,11,00,9.10
2018,01,18,11,01,9.00
2018,01,18,11,02,9.00
2018,01,18,11,03,8.90
2018,01,18,11,04,8.90
2018,01,18,11,05,8.80
2018,01,18,11,06,8.80
2018,01,18,11,07,8.80
2018,01,18,11,08,8.70
2018,01,18,11,09,8.70
2018,01,18,11,10,8.70
2018,01,18,11,11,8.70
2018,01,18,11,12,8.70
2018,01,18,11,13,8.70
2018,01,18,11,14,8.70
2018,01,18,11,15,8.70
2018,01,18,11,16,8.70
2018,01,18,11,17,8.70
2018,01,18,11,18,8.70
2018,01,18,11,19,8.70
2018,01,18,11,20,8.70
2018,01,18,11,21,8.70
2018,01,18,11,22,8.70
2018,01,18,11,23,8.70
2018,01,18,11,24,8.70
2018,01,18,11,25,8.70
2018,01,18,11,26,8.60
2018,01,18,11,27,8.60
2018,01,18,11,28,8.60
2018,01,18,11,29,8.60
2018,01,18,11,30,8.60
2018,01,18,11,31,8.50
2018,01,18,11,32,8.50
2018,01,18,11,33,8.50
2018,01,18,11,34,8.50
2018,01,18,11,35,8.40
2018,01,18,11,36,8.40
2018,01,18,11,37,8.40
2018,01,18,11,38,8.40
2018,01,18,11,39,8.40
2018,01,18,11,40,8.30
2018,01,18,11,41,8.30
2018,01,18,11,42,8.30
2018,01,18,11,43,8.30
2018,01,18,11,44,8.30
2018,01,18,11,45,8.30
2018,01,18,11,46,8.30
2018,01,18,11,47,8.20
2018,01,18,11,48,8.20
2018,01,18,11,49,8.30
2018,01,18,11,50,8.30
2018,01,18,11,51,8.30
2018,01,18,11,52,8.30
2018,01,18,11,53,8.40
2018,01,18,11,54,8.40
2018,01,18,11,55,8.40
2018,01,18,11,56,8.30
2018,01,18,11,57,8.40
2018,01,18,11,58,8.40
2018,01,18,11,59,8.40
2018,01,18,12,00,8.40
2018,01,18,12,01,8.40
2018,01,18,12,02,8.40
2018,01,18,12,03,8.40
2018,01,18,12,04,8.40
2018,01,18,12,05,8.40
2018,01,18,12,06,8.40
2018,01,18,12,07,8.50
2018,01,18,12,08,8.50
2018,01,18,12,09,8.60
2018,01,18,12,10,8.60
2018,01,18,12,11,8.60
2018,01,18,12,12,8.60
2018,01,18,12,13,8.60
2018,01,18,12,14,8.60
2018,01,18,12,15,8.60
2018,01,18,12,16,8.70
2018,01,18,12,17,8.70
2018,01,18,12,18,8.70
2018,01,18,12,19,8.80
2018,01,18,12,20,8.80
2018,01,18,12,21,8.80
2018,01,18,12,22,8.80
2018,01,18,12,23,8.80
2018,01,18,12,24,8.80
2018,01,18,12,25,8.80
2018,01,18,12,26,8.80
2018,01,18,12,27,8.80
2018,01,18,12,28,8.80
2018,01,18,12,29,8.70
2018,01,18,12,30,8.70
2018,01,18,12,31,8.70
2018,01,18,12,32,8.70
2018,01,18,12,33,8.70
2018,01,18,12,34,8.70
2018,01,18,12,35,8.60
2018,01,18,12,36,8.70
2018,01,18,12,37,8.70
2018,01,18,12,38,8.70
2018,01,18,12,39,8.70
2018,01,18,12,40,8.70
2018,01,18,12,41,8.70
2018,01,18,12,42,8.70
2018,01,18,12,43,8.80
2018,01,18,12,44,8.80
2018,01,18,12,45,8.80
2018,01,18,12,46,8.90
2018,01,18,12,47,8.90
2018,01,18,12,48,8.90
2018,01,18,12,49,8.90
2018,01,18,12,50,8.90
2018,01,18,12,51,9.00
2018,01,18,12,52,9.00
2018,01,18,12,53,8.90
2018,01,18,12,54,9.00
2018,01,18,12,55,9.00
2018,01,18,12,56,9.10
2018,01,18,12,57,9.10
2018,01,18,12,58,9.20
2018,01,18,12,59,9.20
2018,01,18,13,00,9.30
2018,01,18,13,01,9.30
2018,01,18,13,02,9.30
2018,01,18,13,03,9.30
2018,01,18,13,04,9.20
2018,01,18,13,05,9.30
2018,01,18,13,06,9.30
2018,01,18,13,07,9.30
2018,01,18,13,08,9.30
2018,01,18,13,09,9.30
2018,01,18,13,10,9.20
2018,01,18,13,11,9.10
2018,01,18,13,12,9.10
2018,01,18,13,13,9.00
2018,01,18,13,14,9.00
2018,01,18,13,15,8.90
2018,01,18,13,16,8.90
2018,01,18,13,17,8.80
2018,01,18,13,18,8.80
2018,01,18,13,19,8.80
2018,01,18,13,20,8.80
2018,01,18,13,21,8.70
2018,01,18,13,22,8.70
2018,01,18,13,23,8.70
2018,01,18,13,24,8.70
2018,01,18,13,25,8.70
2018,01,18,13,26,8.70
2018,01,18,13,27,8.70
2018,01,18,13,28,8.70
2018,01,18,13,29,8.70
2018,01,18,13,30,8.70
2018,01,18,13,31,8.70
2018,01,18,13,32,8.70
2018,01,18,13,33,8.70
2018,01,18,13,34,8.70
2018,01,18,13,35,8.70
2018,01,18,13,36,8.70
2018,01,18,13,37,8.70
2018,01,18,13,38,8.70
2018,01,18,13,39,8.70
2018,01,18,13,40,8.70
2018,01,18,13,41,8.70
2018,01,18,13,42,8.70
2018,01,18,13,43,8.70
2018,01,18,13,44,8.70
2018,01,18,13,45,8.70
2018,01,18,13,46,8.70
2018,01,18,13,47,8.70
2018,01,18,13,48,8.70
2018,01,18,13,49,8.70
2018,01,18,13,50,8.70
2018,01,18,13,51,8.60
2018,01,18,13,52,8.60
2018,01,18,13,53,8.60
2018,01,18,13,54,8.50
2018,01,18,13,55,8.50
2018,01,18,13,56,8.50
2018,01,18,13,57,8.50
2018,01,18,13,58,8.50
2018,01,18,13,59,8.50
2018,01,18,14,00,8.50
2018,01,18,14,01,8.50
2018,01,18,14,02,8.40
2018,01,18,14,03,8.40
2018,01,18,14,04,8.40
2018,01,18,14,05,8.40
2018,01,18,14,06,8.40
2018,01,18,14,07,8.40
2018,01,18,14,08,8.40
2018,01,18,14,09,8.40
2018,01,18,14,10,8.40
2018,01,18,14,11,8.40
2018,01,18,14,12,8.40
2018,01,18,14,13,8.40
2018,01,18,14,14,8.30
2018,01,18,14,15,8.30
2018,01,18,14,16,8.30
2018,01,18,14,17,8.20
2018,01,18,14,18,8.20
2018,01,18,14,19,8.20
2018,01,18,14,20,8.20
2018,01,18,14,21,8.20
2018,01,18,14,22,8.20
2018,01,18,14,23,8.20
2018,01,18,14,24,8.10
2018,01,18,14,25,8.10
2018,01,18,14,26,8.10
2018,01,18,14,27,8.10
2018,01,18,14,28,8.10
2018,01,18,14,29,8.10
2018,01,18,14,30,8.00
2018,01,18,14,31,8.00
2018,01,18,14,32,8.00
2018,01,18,14,33,8.00
2018,01,18,14,34,8.00
2018,01,18,14,35,8.00
2018,01,18,14,36,8.00
2018,01,18,14,37,8.00
2018,01,18,14,38,8.00
2018,01,18,14,39,7.90
2018,01,18,14,40,7.90
2018,01,18,14,41,7.90
2018,01,18,14,42,7.90
2018,01,18,14,43,7.90
2018,01,18,14,44,7.90
2018,01,18,14,45,8.00
2018,01,18,14,46,8.00
2018,01,18,14,47,8.00
2018,01,18,14,48,8.00
2018,01,18,14,49,8.00
2018,01,18,14,50,8.00
2018,01,18,14,51,8.00
2018,01,18,14,52,8.00
2018,01,18,14,53,8.10
2018,01,18,14,54,8.10
2018,01,18,14,55,8.10
2018,01,18,14,56,8.10
2018,01,18,14,57,8.00
2018,01,18,14,58,8.00
2018,01,18,14,59,8.00
2018,01,18,15,00,8.00
2018,01,18,15,01,8.00
2018,01,18,15,02,8.00
2018,01,18,15,03,8.00
2018,01,18,15,04,7.90
2018,01,18,15,05,7.90
2018,01,18,15,06,7.90
2018,01,18,15,07,7.90
2018,01,18,15,08,7.80
2018,01,18,15,09,7.80
2018,01,18,15,10,7.80
2018,01,18,15,11,7.80
2018,01,18,15,12,7.80
2018,01,18,15,13,7.80
2018,01,18,15,14,7.80
2018,01,18,15,15,7.80
2018,01,18,15,16,7.90
2018,01,18,15,17,7.90
2018,01,18,15,18,7.90
2018,01,18,15,19,7.90
2018,01,18,15,20,7.90
2018,01,18,15,21,8.00
2018,01,18,15,22,8.00
2018,01,18,15,23,8.10
2018,01,18,15,24,8.20
2018,01,18,15,25,8.20
2018,01,18,15,26,8.20
2018,01,18,15,27,8.30
2018,01,18,15,28,8.30
2018,01,18,15,29,8.30
2018,01,18,15,30,8.30
2018,01,18,15,31,8.40
2018,01,18,15,32,8.40
2018,01,18,15,33,8.40
2018,01,18,15,34,8.40
2018,01,18,15,35,8.40
2018,01,18,15,36,8.40
2018,01,18,15,37,8.40
2018,01,18,15,38,8.40
2018,01,18,15,39,8.40
2018,01,18,15,40,8.40
2018,01,18,15,41,8.40
2018,01,18,15,42,8.30
2018,01,18,15,43,8.40
2018,01,18,15,44,8.40
2018,01,18,15,45,8.40
2018,01,18,15,46,8.40
2018,01,18,15,47,8.40
2018,01,18,15,48,8.40
2018,01,18,15,49,8.40
2018,01,18,15,50,8.40
2018,01,18,15,51,8.40
2018,01,18,15,52,8.40
2018,01,18,15,53,8.40
2018,01,18,15,54,8.40
2018,01,18,15,55,8.40
2018,01,18,15,56,8.40
2018,01,18,15,57,8.40
2018,01,18,15,58,8.30
2018,01,18,15,59,8.30
2018,01,18,16,00,8.30
2018,01,18,16,01,8.20
2018,01,18,16,02,8.20
2018,01,18,16,03,8.10
2018,01,18,16,04,8.10
2018,01,18,16,05,8.10
2018,01,18,16,06,8.00
2018,01,18,16,07,8.00
2018,01,18,16,08,8.00
2018,01,18,16,09,8.00
2018,01,18,16,10,7.90
2018,01,18,16,11,7.90
2018,01,18,16,12,7.90
2018,01,18,16,13,7.90
2018,01,18,16,14,7.90
2018,01,18,16,15,7.90
2018,01,18,16,16,7.90
2018,01,18,16,17,7.90
2018,01,18,16,18,7.80
2018,01,18,16,19,7.80
2018,01,18,16,20,7.80
2018,01,18,16,21,7.80
2018,01,18,16,22,7.80
2018,01,18,16,23,7.70
2018,01,18,16,24,7.70
2018,01,18,16,25,7.70
2018,01,18,16,26,7.70
2018,01,18,16,27,7.70
2018,01,18,16,28,7.70
2018,01,18,16,29,7.60
2018,01,18,16,30,7.60
2018,01,18,16,31,7.60
2018,01,18,16,32,7.60
2018,01,18,16,33,7.50
2018,01,18,16,34,7.50
2018,01,18,16,35,7.50
2018,01,18,16,36,7.50
2018,01,18,16,37,7.40
2018,01,18,16,38,7.40
2018,01,18,16,39,7.40
2018,01,18,16,40,7.40
2018,01,18,16,41,7.40
2018,01,18,16,42,7.30
2018,01,18,16,43,7.30
2018,01,18,16,44,7.30
2018,01,18,16,45,7.30
2018,01,18,16,46,7.30
2018,01,18,16,47,7.30
2018,01,18,16,48,7.30
2018,01,18,16,49,7.30
2018,01,18,16,50,7.20
2018,01,18,16,51,7.20
2018,01,18,16,52,7.20
2018,01,18,16,53,7.20
2018,01,18,16,54,7.20
2018,01,18,16,55,7.20
2018,01,18,16,56,7.20
2018,01,18,16,57,7.20
2018,01,18,16,58,7.20
2018,01,18,16,59,7.20
2018,01,18,17,00,7.10
2018,01,18,17,01,7.10
2018,01,18,17,02,7.10
2018,01,18,17,03,7.10
2018,01,18,17,04,7.10
2018,01,18,17,05,7.10
2018,01,18,17,06,7.10
2018,01,18,17,07,7.10
2018,01,18,17,08,7.10
2018,01,18,17,09,7.10
2018,01,18,17,10,7.10
2018,01,18,17,11,7.10
2018,01,18,17,12,7.10
2018,01,18,17,13,7.10
2018,01,18,17,14,7.10
2018,01,18,17,15,7.10
2018,01,18,17,16,7.10
2018,01,18,17,17,7.10
2018,01,18,17,18,7.10
2018,01,18,17,19,7.10
2018,01,18,17,20,7.00
2018,01,18,17,21,7.00
2018,01,18,17,22,7.00
2018,01,18,17,23,7.00
2018,01,18,17,24,7.00
2018,01,18,17,25,6.90
2018,01,18,17,26,6.90
2018,01,18,17,27,6.90
2018,01,18,17,28,6.80
2018,01,18,17,29,6.80
2018,01,18,17,30,6.80
2018,01,18,17,31,6.80
2018,01,18,17,32,6.80
2018,01,18,17,33,6.80
2018,01,18,17,34,6.70
2018,01,18,17,35,6.70
2018,01,18,17,36,6.70
2018,01,18,17,37,6.70
2018,01,18,17,38,6.70
2018,01,18,17,39,6.70
2018,01,18,17,40,6.70
2018,01,18,17,41,6.70
2018,01,18,17,42,6.70
2018,01,18,17,43,6.60
2018,01,18,17,44,6.60
2018,01,18,17,45,6.60
2018,01,18,17,46,6.60
2018,01,18,17,47,6.60
2018,01,18,17,48,6.70
2018,01,18,17,49,6.70
2018,01,18,17,50,6.70
2018,01,18,17,51,6.70
2018,01,18,17,52,6.70
2018,01,18,17,53,6.70
2018,01,18,17,54,6.80
2018,01,18,17,55,6.80
2018,01,18,17,56,6.80
2018,01,18,17,57,6.80
2018,01,18,17,58,6.80
2018,01,18,17,59,6.80
2018,01,18,18,00,6.70
2018,01,18,18,01,6.70
2018,01,18,18,02,6.70
2018,01,18,18,03,6.70
2018,01,18,18,04,6.70
2018,01,18,18,05,6.70
2018,01,18,18,06,6.60
2018,01,18,18,07,6.60
2018,01,18,18,08,6.60
2018,01,18,18,09,6.60
2018,01,18,18,10,6.60
2018,01,18,18,11,6.50
2018,01,18,18,12,6.50
2018,01,18,18,13,6.50
2018,01,18,18,14,6.50
2018,01,18,18,15,6.50
2018,01,18,18,16,6.50
2018,01,18,18,17,6.50
2018,01,18,18,18,6.50
2018,01,18,18,19,6.50
2018,01,18,18,20,6.50
2018,01,18,18,21,6.50
2018,01,18,18,22,6.50
2018,01,18,18,23,6.50
2018,01,18,18,24,6.50
2018,01,18,18,25,6.40
2018,01,18,18,26,6.40
2018,01,18,18,27,6.40
2018,01,18,18,28,6.40
2018,01,18,18,29,6.40
2018,01,18,18,30,6.40
2018,01,18,18,31,6.40
2018,01,18,18,32,6.40
2018,01,18,18,33,6.40
2018,01,18,18,34,6.30
2018,01,18,18,35,6.30
2018,01,18,18,36,6.30
2018,01,18,18,37,6.20
2018,01,18,18,38,6.20
2018,01,18,18,39,6.20
2018,01,18,18,40,6.20
2018,01,18,18,41,6.20
2018,01,18,18,42,6.20
2018,01,18,18,43,6.30
2018,01,18,18,44,6.30
2018,01,18,18,45,6.30
2018,01,18,18,46,6.40
2018,01,18,18,47,6.40
2018,01,18,18,48,6.40
2018,01,18,18,49,6.40
2018,01,18,18,50,6.40
2018,01,18,18,51,6.40
2018,01,18,18,52,6.40
2018,01,18,18,53,6.40
2018,01,18,18,54,6.40
2018,01,18,18,55,6.50
2018,01,18,18,56,6.50
2018,01,18,18,57,6.50
2018,01,18,18,58,6.50
2018,01,18,18,59,6.60
2018,01,18,19,00,6.60
2018,01,18,19,01,6.60
2018,01,18,19,02,6.60
2018,01,18,19,03,6.60
2018,01,18,19,04,6.70
2018,01,18,19,05,6.70
2018,01,18,19,06,6.70
2018,01,18,19,07,6.70
2018,01,18,19,08,6.70
2018,01,18,19,09,6.70
2018,01,18,19,10,6.70
2018,01,18,19,11,6.70
2018,01,18,19,12,6.70
2018,01,18,19,13,6.70
2018,01,18,19,14,6.70
2018,01,18,19,15,6.70
2018,01,18,19,16,6.70
2018,01,18,19,17,6.70
2018,01,18,19,18,6.70
2018,01,18,19,19,6.70
2018,01,18,19,20,6.70
2018,01,18,19,21,6.60
2018,01,18,19,22,6.60
2018,01,18,19,23,6.60
2018,01,18,19,24,6.60
2018,01,18,19,25,6.60
2018,01,18,19,26,6.60
2018,01,18,19,27,6.60
2018,01,18,19,28,6.60
2018,01,18,19,29,6.60
2018,01,18,19,30,6.60
2018,01,18,19,31,6.60
2018,01,18,19,32,6.60
2018,01,18,19,33,6.60
2018,01,18,19,34,6.60
2018,01,18,19,35,6.60
2018,01,18,19,36,6.60
2018,01,18,19,37,6.60
2018,01,18,19,38,6.60
2018,01,18,19,39,6.60
2018,01,18,19,40,6.60
2018,01,18,19,41,6.60
2018,01,18,19,42,6.60
2018,01,18,19,43,6.60
2018,01,18,19,44,6.60
2018,01,18,19,45,6.60
2018,01,18,19,46,6.60
2018,01,18,19,47,6.60
2018,01,18,19,48,6.60
2018,01,18,19,49,6.60
2018,01,18,19,50,6.60
2018,01,18,19,51,6.60
2018,01,18,19,52,6.60
2018,01,18,19,53,6.60
2018,01,18,19,54,6.60
2018,01,18,19,55,6.50
2018,01,18,19,56,6.50
2018,01,18,19,57,6.50
2018,01,18,19,58,6.50
2018,01,18,19,59,6.50
2018,01,18,20,00,6.50
2018,01,18,20,01,6.50
2018,01,18,20,02,6.40
2018,01,18,20,03,6.40
2018,01,18,20,04,6.40
2018,01,18,20,05,6.40
2018,01,18,20,06,6.40
2018,01,18,20,07,6.30
2018,01,18,20,08,6.30
2018,01,18,20,09,6.30
2018,01,18,20,10,6.30
2018,01,18,20,11,6.30
2018,01,18,20,12,6.30
2018,01,18,20,13,6.30
2018,01,18,20,14,6.30
2018,01,18,20,15,6.30
2018,01,18,20,16,6.30
2018,01,18,20,17,6.30
2018,01,18,20,18,6.30
2018,01,18,20,19,6.30
2018,01,18,20,20,6.30
2018,01,18,20,21,6.30
2018,01,18,20,22,6.30
2018,01,18,20,23,6.20
2018,01,18,20,24,6.20
2018,01,18,20,25,6.20
2018,01,18,20,26,6.20
2018,01,18,20,27,6.20
2018,01,18,20,28,6.20
2018,01,18,20,29,6.20
2018,01,18,20,30,6.20
2018,01,18,20,31,6.10
2018,01,18,20,32,6.10
2018,01,18,20,33,6.10
2018,01,18,20,34,6.10
2018,01,18,20,35,6.00
2018,01,18,20,36,6.00
2018,01,18,20,37,6.00
2018,01,18,20,38,5.90
2018,01,18,20,39,5.90
2018,01,18,20,40,5.90
2018,01,18,20,41,5.80
2018,01,18,20,42,5.80
2018,01,18,20,43,5.80
2018,01,18,20,44,5.80
2018,01,18,20,45,5.80
2018,01,18,20,46,5.70
2018,01,18,20,47,5.70
2018,01,18,20,48,5.70
2018,01,18,20,49,5.60
2018,01,18,20,50,5.60
2018,01,18,20,51,5.60
2018,01,18,20,52,5.50
2018,01,18,20,53,5.50
2018,01,18,20,54,5.40